Location: Pensacola
(30.4142°N, 87.2155°W)
Time: 10:43:13
(UTC-05:00)

CZ-2C DEB - Visible Passes

Search period start: 12 July 2024 00:00
Search period end: 22 July 2024 00:00
Orbit: 565 x 578 km, 97.6° (Epoch: 11 July)

Date Brightness Start Highest point End Pass type
(mag) Time Alt. Az. Time Alt. Az. Time Alt. Az.
12 Jul ? 21:59:22 42° NE 21:59:22 42° NE 22:02:42 10° N visible
13 Jul ? 22:01:52 44° NE 22:01:52 44° NE 22:05:11 10° N visible
14 Jul ? 22:04:21 47° NE 22:04:21 47° NE 22:07:38 10° N visible
15 Jul ? 22:06:49 48° NNE 22:06:49 48° NNE 22:10:04 10° N visible
16 Jul ? 22:09:16 49° NNE 22:09:16 49° NNE 22:12:28 10° N visible
17 Jul ? 22:11:43 50° NNE 22:11:43 50° NNE 22:14:52 10° N visible
18 Jul ? 22:14:09 49° N 22:14:09 49° N 22:17:15 10° N visible
19 Jul ? 22:16:33 49° N 22:16:33 49° N 22:19:35 10° N visible
20 Jul ? 22:18:57 47° N 22:18:57 47° N 22:21:56 10° N visible
21 Jul ? 22:21:20 45° NNW 22:21:20 45° NNW 22:24:15 10° NNW visible
